Location: Mentone
(34.5413°N, 85.5351°W)
Time: 20:27:57
(UTC-05:00)

Uosat F - Visible Passes

Search period start: 27 July 2015 00:00
Search period end: 06 August 2015 00:00
Orbit: 751 x 761 km, 98.7° (Epoch: 26 July)

Date Brightness Start Highest point End Pass type
(mag) Time Alt. Az. Time Alt. Az. Time Alt. Az.
28 Jul 13.6 04:53:23 10° NE 04:57:06 21° E 05:00:58 10° SE visible
30 Jul 12.8 05:12:51 10° NNE 05:17:22 34° E 05:21:55 10° SSE visible
31 Jul 13.9 04:35:29 10° ENE 04:37:38 13° E 04:40:05 10° ESE visible
02 Aug 13.6 04:54:15 10° NE 04:57:59 21° E 05:01:50 10° SE visible
04 Aug 12.8 05:13:43 10° NNE 05:18:14 34° E 05:22:47 10° SSE visible
05 Aug 13.9 04:36:20 10° ENE 04:38:30 13° E 04:40:58 10° ESE visible
